QPF
0.02 0.02 0.01 0.02 0.02 0.02 0.02 0.02 0.02 0.02 0.02 0.02 0.02 0.02 0.02 0.02 0.02 0.02 0.02 0.02 0.01 0.01 0.01 0.00 0.00 0.01 0.01 0.01 0.02 0.02 0.02 0.03 0.04 0.04 0.04 0.03 0.03 0.03
0.02 0.02 0.02 0.01 0.02 0.02 0.02 0.02 0.02 0.01 0.02 0.02 0.02 0.02 0.02 0.02 0.03 0.03 0.03 0.02 0.01 0.00 0.00 0.00 0.00 0.00 0.00 0.01 0.02 0.02 0.02 0.02 0.02 0.03 0.02 0.02 0.02 0.02
0.01 0.02 0.02 0.02 0.02 0.02 0.02 0.02 0.02 0.02 0.01 0.01 0.02 0.01 0.01 0.02 0.03 0.03 0.03 0.02 0.01 0.01 0.00 0.00 0.00 0.00 0.00 0.01 0.01 0.01 0.01 0.01 0.01 0.01 0.01 0.01 0.01 0.01
0.02 0.03 0.03 0.02 0.02 0.01 0.02 0.02 0.02 0.02 0.01 0.01 0.01 0.01 0.01 0.01 0.02 0.02 0.02 0.02 0.01 0.00 0.00 0.00 0.00 0.00 0.01 0.01 0.02 0.01 0.01 0.01 0.01 0.01 0.01 0.01 0.01 0.01
0.03 0.03 0.03 0.02 0.01 0.02 0.02 0.02 0.02 0.02 0.02 0.02 0.02 0.01 0.01 0.01 0.01 0.02 0.02 0.02 0.02 0.01 0.00 0.01 0.01 0.01 0.01 0.01 0.02 0.02 0.01 0.01 0.01 0.01 0.01 0.01 0.01 0.01
0.02 0.02 0.02 0.02 0.02 0.02 0.02 0.02 0.01 0.02 0.02 0.02 0.02 0.02 0.02 0.01 0.01 0.02 0.02 0.02 0.02 0.01 0.01 0.01 0.01 0.01 0.02 0.02 0.02 0.02 0.02 0.01 0.01 0.02 0.02 0.01 0.01 0.01
0.03 0.03 0.03 0.03 0.03 0.03 0.02 0.02 0.02 0.02 0.02 0.02 0.02 0.02 0.01 0.02 0.02 0.02 0.02 0.02 0.02 0.02 0.01 0.01 0.01 0.01 0.01 0.02 0.03 0.03 0.03 0.03 0.02 0.03 0.02 0.02 0.01 0.00
0.03 0.03 0.03 0.03 0.02 0.02 0.02 0.02 0.02 0.02 0.02 0.03 0.03 0.02 0.01 0.01 0.02 0.02 0.03 0.03 0.03 0.02 0.02 0.01 0.01 0.01 0.01 0.01 0.02 0.04 0.05 0.04 0.04 0.04 0.04 0.03 0.02 0.01
0.03 0.02 0.02 0.02 0.01 0.02 0.02 0.02 0.01 0.01 0.02 0.02 0.02 0.02 0.01 0.01 0.01 0.02 0.02 0.02 0.03 0.02 0.02 0.02 0.01 0.01 0.01 0.01 0.02 0.03 0.03 0.04 0.04 0.05 0.06 0.05 0.02 0.01
0.02 0.02 0.02 0.01 0.01 0.01 0.01 0.01 0.01 0.01 0.01 0.01 0.01 0.01 0.01 0.01 0.02 0.02 0.02 0.02 0.02 0.03 0.04 0.03 0.02 0.02 0.01 0.01 0.02 0.03 0.05 0.05 0.04 0.04 0.04 0.04 0.03 0.02
0.01 0.01 0.01 0.01 0.01 0.01 0.01 0.01 0.01 0.01 0.01 0.01 0.01 0.00 0.01 0.01 0.01 0.02 0.02 0.03 0.03 0.03 0.04 0.04 0.03 0.02 0.02 0.02 0.02 0.03 0.04 0.05 0.04 0.04 0.03 0.03 0.03 0.02
0.01 0.01 0.01 0.00 0.00 0.01 0.01 0.01 0.01 0.01 0.01 0.01 0.01 0.01 0.01 0.01 0.01 0.01 0.01 0.03 0.04 0.04 0.03 0.03 0.02 0.02 0.04 0.04 0.03 0.03 0.05 0.06 0.06 0.04 0.03 0.03 0.03 0.02
0.01 0.01 0.01 0.00 0.01 0.01 0.01 0.01 0.01 0.01 0.01 0.01 0.01 0.01 0.02 0.03 0.02 0.02 0.01 0.02 0.03 0.04 0.03 0.02 0.02 0.02 0.03 0.04 0.04 0.03 0.03 0.05 0.06 0.07 0.05 0.04 0.03 0.02
0.01 0.01 0.01 0.01 0.01 0.01 0.01 0.01 0.01 0.01 0.01 0.01 0.01 0.01 0.02 0.04 0.05 0.04 0.03 0.02 0.02 0.02 0.02 0.02 0.02 0.02 0.02 0.02 0.03 0.04 0.03 0.03 0.03 0.04 0.05 0.06 0.05 0.05
0.00 0.01 0.01 0.01 0.01 0.01 0.01 0.01 0.01 0.01 0.01 0.01 0.01 0.01 0.02 0.04 0.07 0.06 0.04 0.03 0.02 0.02 0.02 0.02 0.02 0.03 0.02 0.02 0.02 0.03 0.03 0.03 0.02 0.03 0.03 0.04 0.04 0.04
0.00 0.01 0.01 0.01 0.01 0.01 0.01 0.02 0.02 0.02 0.01 0.01 0.01 0.02 0.02 0.05 0.10 0.11 0.05 0.04 0.04 0.04 0.05 0.04 0.04 0.04 0.04 0.03 0.03 0.02 0.03 0.02 0.02 0.02 0.02 0.03 0.05 0.05
0.01 0.00 0.00 0.00 0.00 0.01 0.01 0.02 0.02 0.02 0.02 0.01 0.02 0.02 0.02 0.03 0.06 0.11 0.08 0.05 0.05 0.05 0.07 0.08 0.07 0.06 0.05 0.04 0.03 0.04 0.03 0.02 0.02 0.02 0.02 0.02 0.03 0.04
0.01 0.00 0.00 0.00 0.00 0.01 0.01 0.02 0.02 0.02 0.02 0.02 0.02 0.03 0.02 0.03 0.03 0.07 0.09 0.06 0.05 0.05 0.05 0.07 0.08 0.08 0.07 0.06 0.04 0.03 0.03 0.03 0.03 0.02 0.02 0.01 0.01 0.01
0.01 0.01 0.01 0.00 0.00 0.01 0.01 0.02 0.02 0.02 0.03 0.03 0.03 0.03 0.03 0.03 0.02 0.04 0.06 0.06 0.04 0.04 0.04 0.06 0.06 0.06 0.05 0.05 0.05 0.03 0.02 0.03 0.03 0.03 0.03 0.02 0.01 0.01
0.02 0.02 0.02 0.01 0.01 0.01 0.01 0.02 0.03 0.03 0.03 0.04 0.04 0.03 0.03 0.03 0.03 0.03 0.03 0.05 0.05 0.05 0.04 0.06 0.07 0.05 0.04 0.03 0.03 0.04 0.03 0.03 0.03 0.03 0.02 0.02 0.02 0.02
0.03 0.03 0.03 0.02 0.02 0.02 0.01 0.02 0.03 0.04 0.05 0.05 0.04 0.03 0.03 0.04 0.04 0.03 0.03 0.04 0.05 0.05 0.04 0.05 0.06 0.06 0.05 0.04 0.04 0.03 0.03 0.03 0.03 0.02 0.02 0.02 0.02 0.02
0.02 0.02 0.02 0.02 0.02 0.03 0.03 0.04 0.05 0.06 0.06 0.05 0.04 0.02 0.02 0.03 0.04 0.03 0.03 0.03 0.04 0.04 0.04 0.04 0.05 0.06 0.06 0.04 0.03 0.03 0.03 0.03 0.03 0.03 0.02 0.01 0.01 0.01
0.02 0.02 0.02 0.02 0.02 0.02 0.03 0.03 0.04 0.05 0.06 0.05 0.03 0.03 0.03 0.03 0.03 0.04 0.04 0.04 0.04 0.05 0.05 0.04 0.05 0.05 0.05 0.04 0.03 0.02 0.02 0.02 0.02 0.02 0.01 0.01 0.01 0.01
MSLP
1015.86 1016.11 1016.42 1016.73 1017.01 1017.22 1017.36 1017.42 1017.44 1017.44 1017.46 1017.53 1017.67 1017.85 1018.07 1018.26 1018.40 1018.45 1018.38 1018.20 1017.93 1017.59 1017.23 1016.85 1016.49 1016.12 1015.74 1015.30 1014.79 1014.18 1013.48 1012.73 1011.96 1011.26 1010.69 1010.33 1010.22 1010.39
1015.31 1015.54 1015.83 1016.13 1016.43 1016.67 1016.85 1016.97 1017.05 1017.11 1017.20 1017.33 1017.51 1017.75 1018.00 1018.24 1018.43 1018.53 1018.53 1018.42 1018.21 1017.93 1017.63 1017.32 1017.02 1016.74 1016.46 1016.15 1015.80 1015.37 1014.88 1014.34 1013.78 1013.27 1012.85 1012.59 1012.52 1012.66
1014.85 1015.06 1015.32 1015.62 1015.91 1016.18 1016.40 1016.58 1016.72 1016.85 1017.00 1017.18 1017.41 1017.68 1017.97 1018.24 1018.46 1018.61 1018.65 1018.60 1018.46 1018.25 1018.01 1017.77 1017.54 1017.33 1017.13 1016.91 1016.67 1016.39 1016.05 1015.68 1015.30 1014.95 1014.67 1014.51 1014.50 1014.64
1014.48 1014.67 1014.92 1015.20 1015.49 1015.78 1016.03 1016.26 1016.46 1016.65 1016.85 1017.08 1017.34 1017.63 1017.93 1018.22 1018.46 1018.63 1018.72 1018.73 1018.66 1018.53 1018.37 1018.19 1018.03 1017.88 1017.74 1017.59 1017.43 1017.24 1017.01 1016.77 1016.52 1016.30 1016.14 1016.07 1016.11 1016.27
1014.19 1014.36 1014.59 1014.85 1015.13 1015.42 1015.70 1015.96 1016.21 1016.45 1016.70 1016.96 1017.25 1017.55 1017.85 1018.14 1018.39 1018.58 1018.71 1018.78 1018.77 1018.73 1018.65 1018.56 1018.46 1018.37 1018.28 1018.18 1018.07 1017.94 1017.79 1017.62 1017.47 1017.35 1017.28 1017.28 1017.37 1017.54
1013.90 1014.07 1014.27 1014.51 1014.77 1015.05 1015.34 1015.63 1015.91 1016.19 1016.48 1016.77 1017.07 1017.37 1017.67 1017.95 1018.20 1018.42 1018.58 1018.70 1018.77 1018.81 1018.82 1018.82 1018.80 1018.77 1018.73 1018.67 1018.60 1018.50 1018.39 1018.28 1018.19 1018.13 1018.13 1018.19 1018.31 1018.50
1013.55 1013.71 1013.89 1014.10 1014.35 1014.61 1014.90 1015.20 1015.51 1015.82 1016.13 1016.44 1016.75 1017.06 1017.35 1017.63 1017.88 1018.11 1018.31 1018.49 1018.63 1018.75 1018.86 1018.94 1019.01 1019.05 1019.06 1019.04 1018.99 1018.93 1018.85 1018.77 1018.72 1018.71 1018.76 1018.86 1019.01 1019.21
1013.10 1013.24 1013.40 1013.59 1013.80 1014.05 1014.33 1014.64 1014.96 1015.29 1015.62 1015.95 1016.28 1016.59 1016.88 1017.16 1017.42 1017.67 1017.90 1018.13 1018.34 1018.54 1018.73 1018.90 1019.04 1019.15 1019.22 1019.25 1019.24 1019.21 1019.16 1019.12 1019.11 1019.13 1019.22 1019.35 1019.54 1019.75
1012.50 1012.64 1012.78 1012.94 1013.14 1013.37 1013.64 1013.94 1014.27 1014.62 1014.97 1015.32 1015.66 1015.98 1016.28 1016.57 1016.84 1017.11 1017.37 1017.63 1017.90 1018.17 1018.43 1018.68 1018.89 1019.07 1019.20 1019.28 1019.32 1019.33 1019.32 1019.32 1019.34 1019.41 1019.53 1019.70 1019.91 1020.15
1011.78 1011.92 1012.05 1012.20 1012.38 1012.60 1012.86 1013.16 1013.49 1013.85 1014.22 1014.58 1014.94 1015.28 1015.59 1015.89 1016.18 1016.46 1016.75 1017.04 1017.35 1017.66 1017.97 1018.28 1018.55 1018.79 1018.98 1019.11 1019.21 1019.26 1019.31 1019.36 1019.43 1019.55 1019.70 1019.91 1020.15 1020.41
1010.98 1011.13 1011.27 1011.43 1011.61 1011.82 1012.07 1012.37 1012.70 1013.06 1013.44 1013.82 1014.19 1014.54 1014.87 1015.18 1015.48 1015.77 1016.07 1016.37 1016.70 1017.03 1017.38 1017.71 1018.03 1018.31 1018.55 1018.74 1018.89 1019.01 1019.11 1019.21 1019.34 1019.51 1019.71 1019.95 1020.21 1020.49
1010.16 1010.35 1010.52 1010.70 1010.89 1011.10 1011.35 1011.64 1011.97 1012.32 1012.70 1013.08 1013.46 1013.81 1014.15 1014.47 1014.76 1015.06 1015.35 1015.65 1015.98 1016.31 1016.66 1017.01 1017.34 1017.65 1017.93 1018.17 1018.37 1018.55 1018.71 1018.87 1019.05 1019.26 1019.50 1019.77 1020.05 1020.35
1009.37 1009.61 1009.84 1010.06 1010.27 1010.50 1010.75 1011.03 1011.34 1011.68 1012.03 1012.40 1012.76 1013.11 1013.44 1013.75 1014.05 1014.33 1014.61 1014.90 1015.20 1015.51 1015.85 1016.18 1016.52 1016.84 1017.14 1017.41 1017.66 1017.88 1018.09 1018.31 1018.53 1018.78 1019.05 1019.33 1019.63 1019.93
1008.65 1008.97 1009.26 1009.52 1009.77 1010.01 1010.26 1010.52 1010.80 1011.11 1011.43 1011.76 1012.10 1012.43 1012.74 1013.03 1013.31 1013.57 1013.83 1014.09 1014.36 1014.65 1014.95 1015.26 1015.58 1015.90 1016.20 1016.49 1016.77 1017.03 1017.28 1017.53 1017.78 1018.05 1018.33 1018.63 1018.92 1019.22
1008.00 1008.39 1008.75 1009.07 1009.35 1009.60 1009.84 1010.07 1010.31 1010.57 1010.84 1011.12 1011.42 1011.71 1011.99 1012.26 1012.52 1012.76 1013.00 1013.23 1013.47 1013.72 1013.99 1014.27 1014.56 1014.85 1015.15 1015.45 1015.73 1016.01 1016.28 1016.55 1016.82 1017.09 1017.37 1017.65 1017.94 1018.22
1007.39 1007.86 1008.27 1008.63 1008.94 1009.19 1009.41 1009.60 1009.79 1009.99 1010.19 1010.42 1010.66 1010.91 1011.17 1011.42 1011.65 1011.88 1012.10 1012.31 1012.53 1012.75 1012.98 1013.22 1013.48 1013.75 1014.03 1014.31 1014.60 1014.87 1015.15 1015.42 1015.68 1015.94 1016.20 1016.46 1016.72 1016.97
1006.82 1007.33 1007.78 1008.16 1008.47 1008.70 1008.89 1009.03 1009.16 1009.29 1009.43 1009.60 1009.79 1010.00 1010.23 1010.46 1010.69 1010.92 1011.13 1011.34 1011.54 1011.74 1011.95 1012.16 1012.39 1012.63 1012.88 1013.15 1013.41 1013.67 1013.93 1014.19 1014.43 1014.67 1014.90 1015.12 1015.35 1015.57
1006.25 1006.77 1007.22 1007.60 1007.88 1008.09 1008.22 1008.31 1008.38 1008.44 1008.53 1008.64 1008.79 1008.97 1009.18 1009.41 1009.65 1009.88 1010.10 1010.32 1010.52 1010.71 1010.90 1011.10 1011.30 1011.51 1011.74 1011.97 1012.21 1012.45 1012.69 1012.91 1013.13 1013.34 1013.54 1013.73 1013.92 1014.11
1005.71 1006.20 1006.62 1006.95 1007.19 1007.34 1007.42 1007.45 1007.46 1007.47 1007.50 1007.56 1007.68 1007.84 1008.05 1008.28 1008.54 1008.79 1009.04 1009.27 1009.48 1009.68 1009.87 1010.05 1010.23 1010.41 1010.61 1010.81 1011.02 1011.23 1011.45 1011.65 1011.85 1012.03 1012.20 1012.37 1012.53 1012.69
1005.21 1005.64 1005.99 1006.26 1006.43 1006.52 1006.54 1006.51 1006.46 1006.41 1006.40 1006.43 1006.52 1006.68 1006.88 1007.13 1007.40 1007.67 1007.95 1008.20 1008.43 1008.64 1008.82 1008.99 1009.16 1009.32 1009.49 1009.67 1009.85 1010.04 1010.23 1010.42 1010.60 1010.77 1010.93 1011.08 1011.23 1011.38
1004.82 1005.15 1005.42 1005.60 1005.70 1005.71 1005.67 1005.58 1005.47 1005.38 1005.32 1005.33 1005.39 1005.54 1005.74 1005.99 1006.27 1006.56 1006.85 1007.11 1007.35 1007.57 1007.75 1007.91 1008.06 1008.21 1008.35 1008.51 1008.67 1008.84 1009.02 1009.20 1009.38 1009.56 1009.72 1009.88 1010.04 1010.20
1004.59 1004.82 1004.98 1005.07 1005.08 1005.03 1004.91 1004.76 1004.60 1004.46 1004.37 1004.33 1004.37 1004.48 1004.66 1004.90 1005.17 1005.45 1005.74 1006.00 1006.24 1006.44 1006.62 1006.77 1006.90 1007.03 1007.15 1007.29 1007.44 1007.61 1007.79 1007.98 1008.17 1008.37 1008.56 1008.75 1008.94 1009.13
1004.56 1004.68 1004.75 1004.75 1004.68 1004.55 1004.37 1004.16 1003.95 1003.76 1003.61 1003.52 1003.51 1003.57 1003.70 1003.89 1004.12 1004.37 1004.62 1004.85 1005.07 1005.25 1005.40 1005.53 1005.64 1005.75 1005.87 1005.99 1006.14 1006.31 1006.49 1006.70 1006.92 1007.15 1007.39 1007.62 1007.85 1008.09
Thickness
5669 5668 5667 5666 5666 5666 5664 5660 5654 5649 5649 5652 5653 5655 5655 5654 5654 5653 5652 5652 5651 5650 5650 5650 5649 5648 5648 5647 5647 5647 5646 5646 5645 5645 5645 5645 5645 5645
5665 5664 5663 5662 5661 5661 5659 5658 5656 5651 5647 5650 5651 5652 5652 5651 5650 5649 5649 5648 5647 5646 5646 5645 5645 5644 5644 5643 5642 5642 5641 5641 5641 5640 5640 5640 5640 5640
5662 5661 5659 5658 5657 5656 5655 5653 5652 5650 5645 5645 5648 5648 5647 5646 5646 5645 5645 5644 5643 5643 5642 5642 5641 5641 5640 5639 5638 5637 5637 5636 5636 5636 5635 5635 5635 5635
5658 5657 5655 5655 5653 5651 5650 5649 5648 5647 5644 5640 5641 5642 5642 5643 5642 5641 5641 5641 5640 5639 5639 5638 5637 5636 5636 5635 5634 5633 5632 5632 5631 5631 5631 5630 5630 5629
5655 5653 5652 5650 5648 5646 5645 5644 5643 5643 5641 5638 5636 5637 5638 5639 5637 5637 5637 5637 5636 5636 5635 5634 5633 5632 5631 5630 5629 5628 5628 5627 5626 5626 5625 5625 5625 5624
5653 5651 5649 5647 5645 5643 5641 5640 5638 5637 5635 5633 5632 5632 5632 5633 5632 5631 5630 5631 5631 5632 5631 5630 5629 5628 5627 5626 5625 5624 5623 5622 5622 5621 5620 5620 5619 5619
5648 5646 5645 5644 5643 5640 5638 5635 5633 5631 5629 5628 5626 5626 5625 5625 5625 5626 5625 5625 5626 5627 5626 5626 5625 5624 5622 5621 5621 5620 5619 5618 5617 5616 5616 5615 5614 5614
5641 5640 5640 5639 5638 5636 5634 5632 5630 5627 5625 5623 5621 5620 5621 5622 5621 5621 5619 5617 5616 5621 5620 5620 5621 5619 5619 5618 5617 5616 5615 5613 5613 5612 5611 5610 5609 5609
5636 5635 5635 5634 5632 5630 5629 5628 5626 5625 5623 5621 5618 5618 5618 5618 5617 5615 5614 5613 5613 5615 5615 5613 5615 5614 5615 5614 5613 5611 5610 5609 5607 5607 5606 5605 5604 5603
5632 5631 5630 5628 5628 5625 5624 5622 5620 5619 5619 5618 5617 5616 5615 5615 5613 5612 5610 5610 5610 5611 5610 5607 5608 5608 5610 5609 5608 5606 5605 5604 5602 5601 5600 5599 5598 5597
5628 5626 5625 5623 5623 5621 5618 5615 5614 5614 5614 5614 5613 5612 5611 5610 5609 5605 5603 5601 5601 5602 5604 5602 5602 5602 5603 5603 5602 5600 5599 5598 5596 5594 5593 5592 5591 5590
5622 5621 5620 5618 5617 5615 5612 5609 5607 5608 5608 5608 5606 5606 5605 5604 5603 5601 5599 5596 5595 5594 5597 5596 5595 5594 5593 5596 5595 5593 5592 5590 5589 5587 5586 5585 5583 5581
5616 5614 5613 5612 5611 5609 5607 5605 5604 5603 5602 5602 5600 5599 5598 5598 5597 5596 5595 5593 5591 5590 5592 5591 5589 5588 5586 5586 5587 5586 5584 5582 5581 5579 5577 5576 5574 5573
5610 5608 5607 5606 5604 5603 5601 5600 5599 5598 5596 5595 5594 5592 5591 5591 5591 5590 5590 5589 5588 5587 5587 5585 5583 5581 5579 5577 5576 5577 5576 5575 5573 5571 5569 5566 5564 5563
5604 5602 5600 5598 5597 5595 5594 5593 5592 5590 5589 5588 5587 5586 5586 5586 5585 5584 5583 5582 5582 5581 5580 5579 5577 5575 5573 5570 5568 5568 5566 5565 5564 5562 5560 5558 5556 5555
5595 5594 5593 5591 5589 5588 5588 5587 5586 5585 5583 5582 5581 5580 5580 5578 5577 5576 5574 5573 5571 5571 5572 5571 5570 5568 5565 5564 5561 5559 5558 5556 5555 5553 5552 5549 5548 5546
5588 5585 5583 5581 5580 5580 5579 5579 5579 5578 5577 5576 5575 5573 5572 5570 5569 5568 5566 5564 5562 5562 5561 5561 5561 5559 5558 5556 5552 5551 5549 5547 5546 5545 5542 5540 5539 5538
5580 5577 5576 5575 5574 5573 5572 5571 5571 5570 5570 5569 5567 5566 5564 5563 5561 5560 5558 5556 5554 5554 5553 5552 5550 5548 5545 5545 5545 5543 5541 5539 5537 5535 5533 5531 5530 5530
5572 5571 5570 5569 5568 5567 5566 5565 5564 5564 5563 5561 5560 5558 5557 5555 5553 5551 5549 5547 5545 5544 5543 5542 5540 5538 5535 5535 5535 5534 5532 5530 5527 5525 5523 5522 5521 5521
5565 5565 5563 5562 5561 5560 5559 5558 5557 5556 5555 5553 5551 5550 5548 5547 5544 5542 5540 5539 5537 5535 5533 5532 5530 5529 5527 5526 5525 5523 5523 5521 5518 5516 5514 5512 5511 5511
5559 5558 5557 5556 5554 5553 5552 5551 5550 5548 5547 5545 5543 5542 5540 5537 5535 5534 5532 5530 5528 5526 5524 5523 5522 5521 5519 5516 5514 5513 5512 5511 5510 5507 5505 5502 5500 5499
5552 5551 5550 5549 5548 5546 5545 5544 5543 5541 5540 5537 5535 5533 5531 5529 5526 5524 5522 5520 5518 5517 5516 5515 5513 5511 5508 5506 5505 5504 5502 5500 5499 5497 5495 5494 5490 5488
5545 5543 5542 5542 5541 5539 5538 5537 5536 5535 5533 5530 5528 5525 5523 5520 5518 5516 5514 5512 5510 5508 5505 5504 5502 5500 5498 5496 5494 5493 5492 5490 5487 5485 5483 5482 5481 5480